Hourly Data Report for September 17, 2017

All times are specified in Local Standard Time (LST). Add 1 hour to adjust for Daylight Saving Time where and when it is observed.

SATURNA ISLAND CS
BRITISH COLUMBIA

48°47'02.067" N
123°02'41.082" W
24.40 m
1017101
71473
WEZ

Download Data

Hourly Data (September 2017)
Hourly Data Report for September 17, 2017
Temp Definition
°C
Dew Point Temp Definition
°C
Rel Hum Definition
%
Wind Dir Definition
10's deg

Wind Spd Definition
km/h
Visibility Definition
km
Stn Press Definition
kPa
Hmdx Definition


Wind Chill Definition


Weather Definition


TIME
00:00 12.8 8.4 75 23 16   100.78     LegendNANA
01:00 12.3 8.7 79 23 18   100.75     LegendNANA
02:00 12.4 9.0 80 22 17   100.71     LegendNANA
03:00 11.7 9.6 87 23 19   100.66     LegendNANA
04:00 11.6 9.8 89 23 21   100.61     LegendNANA
05:00 11.7 10.0 89 21 27   100.58     LegendNANA
06:00 11.9 10.1 89 22 23   100.56     LegendNANA
07:00 13.2 10.4 84 19 13   100.52     LegendNANA
08:00 14.0 10.0 77 18 26   100.52     LegendNANA
09:00 13.6 10.2 80 17 29   100.52     LegendNANA
10:00 14.5 10.3 76 16 21   100.53     LegendNANA
11:00 14.5 10.1 75 16 33   100.43     LegendNANA
12:00 14.4 10.6 78 16 32   100.33     LegendNANA
13:00 14.0 10.8 81 16 19   100.33     LegendNANA
14:00 14.2 11.2 83 17 33   100.31     LegendNANA
15:00 14.1 11.0 81 17 35   100.29     LegendNANA
16:00 13.2 11.0 86 17 31   100.26     LegendNANA
17:00 12.1 10.4 89 20 31   100.30     LegendNANA
18:00 11.8 10.2 90 23 14   100.32     LegendNANA
19:00 12.4 9.6 83 24 18   100.35     LegendNANA
20:00 11.8 9.2 84 23 18   100.41     LegendNANA
21:00 12.1 9.0 81 23 22   100.43     LegendNANA
22:00 11.8 8.9 82 22 22   100.47     LegendNANA
23:00 11.4 8.1 80 20 22   100.52     LegendNANA

Notes on Data Quality.

Legend

  • E = Estimated
  • M = Missing
  • NA = Not Available
  • ‡ = Partner data that is not subject to review by the National Climate Archives
Date modified: